Date,TemperatureHighF,TemperatureAvgF,TemperatureLowF,DewpointHighF,DewpointAvgF,DewpointLowF,HumidityHigh,HumidityAvg,HumidityLow,PressureMaxIn,PressureMinIn,WindSpeedMaxMPH,WindSpeedAvgMPH,GustSpeedMaxMPH,PrecipitationSumIn
2012-1-1,58.3,48.3,34.7,48.0,31.8,15.2,69,53,33,30.24,29.76,20,4,20,0.00
2012-1-2,34.8,28.5,21.4,19.9,16.1,11.3,78,60,48,30.39,30.16,17,2,17,0.00
2012-1-3,30.7,23.4,17.8,14.7,10.4,5.1,75,58,35,30.52,30.27,10,1,10,0.00
2012-1-4,46.7,36.3,24.5,26.7,17.7,10.3,63,47,35,30.30,30.02,15,2,15,0.00
2012-1-5,54.6,42.4,29.0,30.3,27.5,24.6,85,58,36,30.18,29.97,13,2,13,0.00
2012-1-6,63.1,52.4,43.1,40.5,31.5,28.4,60,46,29,29.98,29.82,15,4,15,0.00
2012-1-7,57.1,49.2,36.2,49.0,34.3,23.4,78,58,31,30.20,29.82,9,1,9,0.00
2012-1-8,50.2,39.8,28.8,32.4,27.7,24.3,88,64,46,30.33,30.19,9,1,9,0.00
2012-1-9,52.9,42.7,35.6,31.6,28.2,25.4,75,57,39,30.24,30.08,7,1,7,0.00
2012-1-10,54.9,42.2,30.5,31.5,28.5,24.7,82,60,36,30.13,29.80,8,0,8,0.00
2012-1-11,51.4,46.2,42.6,49.2,42.2,30.9,93,86,58,29.83,29.40,9,1,9,0.96
2012-1-12,45.2,32.2,18.4,42.3,27.8,12.7,92,83,72,29.85,29.50,19,2,19,0.11
2012-1-13,24.2,20.8,16.4,17.7,14.1,10.1,86,75,68,30.18,29.83,18,2,18,0.00
2012-1-14,32.9,24.5,15.9,26.4,19.3,12.5,89,81,56,30.28,30.07,7,0,7,0.02
2012-1-15,36.9,29.0,19.5,25.4,22.2,16.3,90,76,50,30.51,30.25,9,1,9,0.04
2012-1-16,58.9,46.3,25.8,50.0,38.0,22.0,88,74,49,30.27,29.88,27,5,27,0.03
2012-1-17,62.7,50.1,31.8,56.3,42.0,22.9,89,74,64,30.22,29.68,30,6,30,0.63
2012-1-18,35.3,30.6,27.2,23.9,19.3,15.7,77,63,48,30.33,30.10,8,1,9,0.00
2012-1-19,42.6,33.9,27.6,27.6,23.9,19.7,78,67,53,30.13,29.94,13,2,13,0.00
2012-1-20,36.9,31.5,25.1,31.0,24.1,18.6,82,74,67,30.18,29.81,9,2,9,0.00
2012-1-21,34.7,30.6,28.7,29.8,26.4,23.9,90,84,81,30.22,29.83,6,3,12,0.00
2012-1-22,60.7,41.3,29.5,55.6,38.5,25.8,93,90,82,30.19,29.72,6,1,17,0.06
2012-1-23,60.6,51.5,40.0,55.8,44.2,34.6,92,77,64,30.02,29.62,9,3,23,0.59
2012-1-24,45.9,38.0,29.1,36.1,30.5,25.2,89,75,57,30.39,30.02,5,1,10,0.00
2012-1-25,39.3,34.6,28.3,36.6,31.3,24.8,92,88,78,30.37,30.05,4,1,8,0.27
2012-1-26,56.9,46.1,39.3,54.3,43.8,36.3,95,92,89,30.05,29.54,4,1,9,1.54
2012-1-27,40.6,38.5,35.3,38.1,33.9,31.7,91,84,74,30.09,29.62,6,2,10,0.02
2012-1-28,45.0,37.5,31.0,36.5,25.9,14.9,93,66,31,30.34,29.97,8,2,24,0.01
2012-1-29,50.9,38.8,30.4,24.5,21.4,18.3,70,51,29,30.32,30.16,10,5,27,0.00
2012-1-30,60.7,44.8,28.3,30.6,25.7,21.4,80,51,29,30.31,30.13,10,4,28,0.00
2012-1-31,62.3,55.7,50.2,40.3,32.0,24.5,55,41,34,30.17,30.03,13,8,30,0.02
2012-2-1,64.8,57.4,53.1,53.3,48.7,37.2,88,74,47,30.09,29.99,11,3,29,0.01
2012-2-2,57.9,47.1,38.5,43.5,37.2,32.7,92,70,40,30.37,30.04,5,1,11,0.00
2012-2-3,60.7,46.9,34.5,38.2,34.0,30.9,91,64,34,30.43,30.22,5,1,13,0.00
2012-2-4,51.6,46.2,42.4,43.7,40.2,32.6,93,82,49,30.23,30.02,5,2,11,0.36
2012-2-5,45.2,41.0,32.2,40.2,36.7,29.5,93,85,66,30.26,30.05,8,2,18,0.01
2012-2-6,51.2,37.8,26.5,36.3,29.0,24.2,93,73,40,30.27,30.17,5,1,14,0.00
2012-2-7,51.7,39.0,29.1,35.0,29.5,25.9,91,71,39,30.27,30.19,8,3,16,0.00
2012-2-8,38.7,35.5,32.7,33.1,30.8,27.8,90,83,72,30.35,30.26,3,1,11,0.03
2012-2-9,37.2,34.2,31.7,30.7,25.4,23.3,83,70,61,30.38,30.24,5,1,11,0.00
2012-2-10,37.2,34.5,32.5,31.1,27.1,23.2,87,74,66,30.24,29.96,6,3,14,0.01
2012-2-11,34.5,28.7,19.5,31.0,20.0,7.1,87,71,46,30.44,29.98,10,3,26,0.00
2012-2-12,38.1,26.8,18.2,17.9,12.7,7.0,69,56,43,30.48,30.35,6,2,18,0.00
2012-2-13,37.7,30.8,21.4,21.3,16.4,12.3,77,56,36,30.35,29.99,5,1,11,0.00
2012-2-14,38.7,36.0,32.9,34.6,32.1,21.3,92,86,55,30.14,29.92,6,1,14,0.24
2012-2-15,50.9,42.1,34.4,41.9,36.8,31.2,91,82,65,30.24,30.00,6,1,18,0.11
2012-2-16,50.4,46.0,39.0,47.6,42.1,34.8,94,86,71,30.21,29.97,5,1,19,0.17
2012-2-17,53.2,41.0,30.3,36.7,29.5,22.1,93,68,33,30.25,30.10,5,1,11,0.00
2012-2-18,51.9,42.2,32.8,35.1,30.0,24.8,87,64,38,30.12,30.05,10,3,18,0.00
2012-2-19,41.4,37.3,30.8,28.1,24.2,21.5,74,59,46,30.19,29.97,10,6,21,0.00
2012-2-20,49.9,36.8,23.7,27.7,23.6,19.8,87,61,36,30.35,30.03,8,2,19,0.00
2012-2-21,52.2,46.5,35.9,43.7,36.1,26.0,84,67,56,30.05,29.83,16,5,34,0.12
2012-2-22,60.7,50.4,37.3,42.5,36.0,31.8,90,60,38,29.90,29.47,10,4,37,0.11
2012-2-23,68.5,55.5,39.9,50.2,45.3,37.3,93,71,50,29.60,29.33,6,3,18,0.00
2012-2-24,57.1,45.3,36.0,50.8,34.2,23.8,90,66,44,30.06,29.33,10,4,27,0.00
2012-2-25,40.7,34.7,26.9,24.5,20.8,17.1,72,57,41,30.39,30.05,6,2,22,0.00
2012-2-26,56.4,39.6,22.9,25.1,20.4,16.6,83,51,22,30.42,30.20,10,2,24,0.00
2012-2-27,62.3,53.0,41.4,36.9,27.2,20.7,49,37,22,30.45,30.22,8,4,21,0.00
2012-2-28,67.5,51.1,33.7,41.3,31.0,21.6,71,47,31,30.44,29.96,6,2,13,0.00
2012-2-29,70.0,63.2,54.1,61.9,50.3,28.5,91,66,32,30.00,29.60,11,6,34,0.58
2012-3-1,62.2,52.5,45.5,36.2,32.4,28.3,65,47,32,29.92,29.74,8,2,18,0.00
2012-3-2,74.2,53.9,40.9,61.0,45.0,31.5,90,73,49,29.76,29.27,16,4,35,0.28
2012-3-3,51.5,41.4,33.0,33.6,28.3,22.0,82,61,38,29.93,29.73,8,4,26,0.00
2012-3-4,46.1,36.6,27.6,32.4,24.0,18.2,92,63,34,29.94,29.88,8,2,30,0.06
2012-3-5,37.7,32.2,28.2,31.2,26.5,21.9,93,80,59,30.48,29.87,5,1,13,0.37
2012-3-6,70.2,48.6,27.1,30.0,25.0,19.8,88,49,18,30.46,30.22,14,4,32,0.13
2012-3-7,70.5,61.4,51.1,47.1,38.7,23.3,53,43,26,30.33,30.11,19,10,43,0.00
2012-3-8,63.9,55.0,38.5,55.2,47.0,33.5,92,76,51,30.31,30.00,16,7,42,0.81
2012-3-9,52.0,39.8,34.4,33.5,27.8,19.1,84,65,35,30.50,30.31,10,2,27,0.00
2012-3-10,57.1,43.3,30.3,29.3,23.1,17.0,72,47,23,30.55,30.35,6,1,14,0.00
2012-3-11,70.8,53.1,32.9,40.0,32.3,27.6,81,50,24,30.41,30.18,10,2,24,0.00
2012-3-12,65.7,61.4,56.7,59.5,54.3,35.3,88,78,38,30.18,29.98,13,6,29,0.19
2012-3-13,76.8,67.0,58.7,60.6,56.7,50.8,89,71,44,30.11,30.00,11,3,26,0.00
2012-3-14,80.7,66.5,50.6,59.4,53.5,47.4,91,66,42,30.18,30.06,8,2,19,0.00
2012-3-15,82.0,67.9,59.2,63.6,58.5,53.5,93,73,48,30.15,30.05,8,3,24,0.56
2012-3-16,69.7,62.1,54.0,61.4,57.7,52.3,95,86,70,30.16,30.06,10,1,18,0.49
2012-3-17,78.1,64.5,53.4,65.7,58.8,51.6,95,83,56,30.15,30.04,6,1,34,0.53
2012-3-18,81.3,68.9,56.4,64.6,60.3,54.7,95,76,51,30.15,30.02,8,2,21,0.20
2012-3-19,83.4,72.2,60.1,61.3,55.0,49.3,81,56,34,30.11,29.98,6,2,22,0.00
2012-3-20,84.9,73.4,61.6,60.8,56.7,53.8,80,58,39,30.09,29.97,5,1,18,0.00
2012-3-21,84.7,72.7,59.4,60.6,57.4,54.8,87,61,37,30.14,30.01,8,1,21,0.00
2012-3-22,81.0,69.7,58.7,61.6,57.1,53.4,91,66,44,30.11,30.00,10,1,24,0.04
2012-3-23,73.8,64.9,58.1,66.8,61.0,54.6,94,88,65,30.04,29.73,6,1,26,1.59
2012-3-24,63.9,56.0,49.6,54.6,48.2,43.5,93,76,49,29.88,29.80,3,1,13,0.00
2012-3-25,70.3,59.4,48.3,56.2,51.6,45.5,92,77,57,29.98,29.86,6,2,16,0.00
2012-3-26,67.8,58.9,51.5,55.0,43.5,32.2,93,61,29,30.21,29.98,8,4,24,0.00
2012-3-27,72.1,54.9,40.1,47.7,35.1,27.2,71,49,28,30.25,29.96,5,1,14,0.00
2012-3-28,80.2,68.6,55.5,62.2,53.5,47.3,78,59,44,29.97,29.86,6,2,22,0.05
2012-3-29,72.2,61.3,50.8,50.0,44.5,41.1,76,56,36,30.02,29.89,5,1,13,0.00
2012-3-30,82.2,67.1,53.5,61.1,50.4,41.5,71,56,41,29.91,29.66,8,2,27,0.00
2012-3-31,65.4,59.3,52.1,56.8,52.9,46.3,93,80,59,29.87,29.72,5,1,13,0.10
2012-4-1,78.1,57.2,47.7,63.7,52.2,44.6,94,84,58,29.87,29.63,8,1,19,1.09
2012-4-2,71.3,65.5,60.6,61.2,56.2,48.6,93,73,54,29.85,29.63,5,1,16,0.00
2012-4-3,84.6,69.0,53.8,66.0,56.2,46.9,83,65,46,29.89,29.73,3,1,16,0.00
2012-4-4,80.7,68.9,59.3,66.8,61.7,53.8,91,79,53,29.75,29.64,8,2,21,0.27
2012-4-5,63.0,55.6,45.6,53.8,39.0,31.8,86,56,34,29.91,29.70,10,4,22,0.10
2012-4-6,62.5,50.1,39.5,36.3,32.8,28.4,73,54,30,30.17,29.92,6,3,21,0.00
2012-4-7,69.3,53.3,35.9,40.0,33.0,25.9,84,51,21,30.27,30.13,5,1,13,0.00
2012-4-8,68.8,58.9,51.7,45.8,37.3,23.5,72,48,20,30.20,30.10,6,1,18,0.00
2012-4-9,69.7,56.6,43.4,40.6,32.9,19.6,72,45,18,30.12,29.93,5,2,21,0.00
2012-4-10,60.3,51.3,40.5,36.7,28.2,17.8,75,44,23,30.04,29.95,5,2,30,0.00
2012-4-11,53.5,44.0,31.9,32.6,26.7,22.3,83,53,33,30.22,30.04,5,1,16,0.00
2012-4-12,61.2,47.1,32.0,36.5,31.7,25.7,91,60,29,30.30,30.10,3,1,11,0.00
2012-4-13,67.3,53.0,37.3,48.5,37.1,29.5,91,60,28,30.21,30.09,6,1,19,0.00
2012-4-14,74.2,62.3,50.0,60.7,51.0,42.7,89,68,49,30.10,29.90,6,1,19,0.10
2012-4-15,81.8,71.9,59.4,58.7,55.8,53.8,83,58,42,29.98,29.83,11,5,35,0.00
2012-4-16,73.1,66.8,54.5,62.6,55.3,44.1,89,67,55,30.18,29.78,10,4,34,0.16
2012-4-17,62.9,55.8,48.4,49.1,45.0,40.8,90,69,45,30.32,30.18,2,0,8,0.00
2012-4-18,70.2,58.3,44.5,47.7,41.3,28.4,91,58,23,30.22,30.01,5,1,11,0.00
2012-4-19,76.3,59.9,42.4,50.7,44.0,38.6,90,60,28,30.06,29.83,6,1,16,0.00
2012-4-20,77.8,63.3,50.0,59.8,52.2,46.6,88,69,44,29.83,29.68,8,2,27,0.05
2012-4-21,52.8,48.4,45.3,49.6,43.4,38.7,91,83,68,29.93,29.80,2,0,8,0.28
2012-4-22,56.4,48.4,39.5,40.5,35.1,30.1,93,63,39,29.92,29.82,6,2,13,0.00
2012-4-23,60.9,50.7,38.9,32.7,26.7,17.8,67,42,19,29.89,29.77,6,2,22,0.00
2012-4-24,63.7,52.7,42.8,49.4,38.9,28.3,89,61,38,29.80,29.73,3,1,14,0.03
2012-4-25,76.6,61.4,48.7,64.4,54.6,46.1,92,80,52,29.75,29.60,5,1,14,0.04
2012-4-26,82.0,70.0,55.5,66.6,56.9,33.8,90,66,40,29.99,29.57,6,3,16,0.09
2012-4-27,64.5,54.4,42.1,37.2,30.9,23.3,61,42,25,30.15,29.99,5,2,11,0.00
2012-4-28,78.0,62.3,50.5,66.2,50.2,34.2,91,66,45,30.05,29.85,8,1,30,0.36
2012-4-29,77.5,64.0,51.3,65.8,57.3,48.6,92,80,62,30.12,29.98,5,1,8,0.08
2012-4-30,83.0,70.3,59.0,66.6,62.3,56.9,94,78,48,30.02,29.85,8,2,24,0.33
2012-5-1,83.8,71.5,63.2,70.1,65.3,61.4,95,82,59,30.00,29.83,6,2,18,0.00
2012-5-2,88.5,78.2,66.6,69.1,65.4,61.9,85,66,47,29.98,29.87,6,2,19,0.00
2012-5-3,83.0,73.7,65.3,67.8,64.6,62.0,90,74,55,30.05,29.93,6,2,21,0.00
2012-5-4,85.2,71.8,64.9,71.6,65.8,62.1,92,82,60,29.97,29.76,6,2,22,0.08
2012-5-5,82.3,72.5,64.1,69.4,65.6,62.1,94,80,59,29.91,29.81,3,1,14,1.14
2012-5-6,85.7,75.1,65.0,71.3,66.3,63.2,95,76,51,29.96,29.82,5,0,11,0.00
2012-5-7,84.7,73.6,63.9,68.8,64.5,61.6,93,75,51,29.83,29.69,6,2,16,0.01
2012-5-8,75.3,68.2,60.7,64.5,58.2,49.6,93,72,49,29.86,29.73,3,1,10,0.01
2012-5-9,72.7,64.5,56.3,52.3,47.5,42.1,77,56,36,29.86,29.78,3,1,16,0.00
2012-5-10,69.5,58.4,46.4,47.8,43.4,37.6,92,61,33,29.99,29.85,3,1,8,0.00
2012-5-11,75.3,61.5,46.6,52.0,46.5,40.1,91,62,32,30.14,29.99,5,1,11,0.00
2012-5-12,71.7,62.5,52.5,60.3,52.6,44.6,93,71,49,30.20,30.12,3,0,11,0.11
2012-5-13,64.0,62.1,59.2,62.2,60.1,56.8,94,93,90,30.14,29.97,2,0,10,2.35
2012-5-14,74.0,65.4,60.1,61.6,58.9,54.3,95,81,53,30.00,29.92,3,0,10,0.01
2012-5-15,79.3,66.8,54.6,63.6,57.9,52.9,94,75,43,29.99,29.90,5,1,11,0.00
2012-5-16,83.7,70.6,56.7,63.4,56.9,51.7,92,65,38,29.94,29.84,3,1,14,0.00
2012-5-17,76.0,67.4,57.7,52.3,46.7,38.9,67,49,34,30.05,29.93,3,1,11,0.00
2012-5-18,83.2,68.5,52.9,62.1,53.7,44.4,84,61,42,30.05,29.93,5,0,11,0.00
2012-5-19,87.3,73.6,59.8,67.1,60.7,56.1,88,66,39,30.06,29.97,3,0,11,0.00
2012-5-20,87.2,74.4,62.7,67.7,62.8,57.3,90,69,39,30.08,29.93,3,0,13,0.00
2012-5-21,79.0,71.0,63.6,66.1,61.8,55.7,86,73,56,29.99,29.88,2,0,8,0.00
2012-5-22,76.5,66.7,58.0,60.7,54.8,50.7,78,66,50,29.94,29.80,3,0,8,0.00
2012-5-23,81.9,69.9,57.3,62.8,57.4,53.7,90,67,40,29.87,29.77,5,0,11,0.00
2012-5-24,86.3,76.9,62.7,63.6,57.7,53.4,92,54,34,29.87,29.74,8,2,21,0.00
2012-5-25,89.2,79.3,68.2,70.9,65.3,56.1,80,63,46,29.99,29.80,6,2,19,0.00
2012-5-26,90.5,78.8,66.8,71.1,67.2,63.5,92,70,46,30.08,29.97,5,1,16,0.02
2012-5-27,91.5,79.8,67.6,73.4,68.0,65.2,92,69,45,30.02,29.89,5,1,13,0.00
2012-5-28,91.0,80.2,69.7,72.6,69.5,66.7,91,72,47,29.92,29.78,6,1,16,0.00
2012-5-29,81.5,73.2,67.6,71.4,68.0,64.8,93,84,62,29.84,29.75,3,0,14,2.68
2012-5-30,81.1,73.0,61.5,67.3,59.3,51.3,95,64,42,29.85,29.79,2,0,13,0.01
2012-5-31,83.1,67.3,54.2,64.0,57.2,51.9,94,73,42,29.85,29.59,6,1,21,1.12
2012-6-1,65.3,59.9,54.2,63.5,55.8,49.9,95,87,74,29.86,29.56,3,1,18,0.37
2012-6-2,71.5,61.3,49.9,54.3,50.4,46.3,93,70,44,29.92,29.81,5,1,18,0.01
2012-6-3,66.3,59.4,57.1,59.5,54.9,53.1,91,85,79,29.85,29.81,3,1,10,0.00
2012-6-4,73.2,65.8,61.8,62.1,60.0,55.5,94,83,55,29.83,29.73,3,0,8,0.18
2012-6-5,76.5,66.2,55.6,60.1,53.7,47.2,95,68,40,29.89,29.76,3,1,10,0.01
2012-6-6,74.5,64.2,53.3,54.7,51.7,48.4,92,66,42,29.99,29.88,3,1,13,0.00
2012-6-7,80.8,67.5,52.8,57.1,52.1,47.3,93,62,34,30.05,29.98,3,0,11,0.00
2012-6-8,84.8,75.7,58.8,60.8,53.0,45.0,85,49,26,30.06,29.92,3,1,10,0.00
2012-6-9,87.0,73.2,57.7,64.0,58.7,54.8,91,64,36,29.99,29.87,5,1,14,0.00
2012-6-10,85.0,74.4,64.5,69.2,64.0,60.6,88,71,52,29.97,29.90,5,1,14,0.00
2012-6-11,84.6,75.3,69.2,71.9,68.3,64.5,90,80,61,29.91,29.77,6,1,14,0.00
2012-6-12,84.6,74.5,65.5,69.4,62.4,47.8,94,70,33,29.97,29.82,3,1,13,0.00
2012-6-13,82.1,70.7,55.2,57.7,53.1,48.4,83,56,35,30.05,29.97,3,1,8,0.00
2012-6-14,83.8,75.5,62.2,56.6,52.5,47.6,75,47,29,30.06,29.98,2,0,8,0.00
2012-6-15,89.2,74.9,58.0,68.1,60.0,52.2,87,62,32,30.07,29.98,5,1,13,0.00
2012-6-16,87.8,77.3,69.0,74.4,68.4,65.0,88,75,55,30.12,29.95,8,2,21,0.00
2012-6-17,81.3,76.1,72.0,74.5,68.8,65.8,90,78,69,29.97,29.85,6,2,19,0.12
2012-6-18,89.2,79.2,70.4,68.5,66.4,63.6,85,67,46,29.92,29.83,8,2,29,0.00
2012-6-19,90.3,79.9,69.3,69.7,66.2,63.7,83,65,44,30.05,29.92,5,1,18,0.00
2012-6-20,90.5,79.4,66.7,69.7,66.3,63.3,89,66,45,30.10,29.95,5,1,13,0.00
2012-6-21,91.6,80.3,69.9,69.0,65.5,61.6,88,63,39,29.99,29.84,6,1,19,0.00
2012-6-22,87.3,78.6,71.8,67.8,62.6,55.6,84,61,35,29.92,29.83,2,0,11,0.00
2012-6-23,88.7,77.0,62.8,60.7,57.3,52.3,80,53,31,29.95,29.89,3,0,10,0.00
2012-6-24,92.5,80.3,66.2,64.1,60.3,54.3,79,53,29,29.94,29.82,2,0,8,0.00
2012-6-25,88.9,77.9,69.5,67.9,59.7,46.5,84,57,31,29.87,29.78,3,1,14,0.00
2012-6-26,81.5,72.0,61.4,51.6,46.8,42.8,58,41,28,29.95,29.86,3,1,13,0.00
2012-6-27,89.0,73.8,57.3,61.3,54.1,48.6,82,53,31,30.00,29.86,6,1,14,0.00
2012-6-28,101.2,83.5,63.9,68.1,60.1,55.6,76,49,27,29.90,29.78,5,2,19,0.00
2012-6-29,103.0,88.3,77.3,76.3,66.6,59.6,70,50,27,29.84,29.72,5,1,13,0.00
2012-6-30,102.0,85.8,71.8,74.4,68.7,63.6,86,60,29,29.82,29.72,5,1,11,0.00
2012-7-1,101.0,85.7,74.2,72.1,68.5,64.3,84,59,35,29.97,29.78,6,1,16,0.04
2012-7-2,97.8,82.7,70.2,72.8,67.7,63.4,87,63,35,29.98,29.84,6,2,18,0.00
2012-7-3,95.2,82.9,70.2,72.1,67.8,64.8,84,62,43,29.96,29.81,5,1,14,0.00
2012-7-4,97.0,88.1,73.7,73.9,70.9,68.7,85,59,44,29.92,29.85,3,1,13,0.00
2012-7-5,100.9,86.8,71.1,76.8,70.1,63.0,92,61,30,29.92,29.83,6,1,14,0.18
2012-7-6,100.7,86.6,72.8,72.5,67.6,61.3,80,56,29,29.92,29.83,3,0,8,0.00
2012-7-7,103.8,89.8,76.1,75.2,69.9,60.1,83,56,28,29.92,29.80,3,0,10,0.00
2012-7-8,95.0,82.3,74.9,77.5,72.3,68.2,88,73,54,29.94,29.81,5,1,16,0.03
2012-7-9,84.9,77.3,70.4,73.0,67.6,57.9,93,74,41,29.95,29.88,2,0,8,0.01
2012-7-10,94.0,81.1,68.0,66.9,62.2,56.1,90,57,30,29.97,29.87,3,0,11,0.00
2012-7-11,94.5,82.5,68.7,66.8,62.8,57.1,81,54,29,29.99,29.90,3,0,11,0.00
2012-7-12,87.1,77.0,70.7,71.7,68.4,64.5,93,76,53,30.02,29.95,8,0,29,0.30
2012-7-13,82.8,76.0,69.5,72.4,70.0,67.7,94,82,63,30.04,29.96,5,0,13,0.00
2012-7-14,88.0,77.2,72.4,75.6,72.4,69.8,94,85,62,30.08,29.99,3,1,13,1.69
2012-7-15,91.5,80.1,72.5,76.4,72.7,70.0,94,79,55,30.10,29.96,5,1,18,0.02
2012-7-16,93.3,83.3,74.0,77.4,73.8,71.5,93,74,53,30.02,29.86,5,1,16,0.00
2012-7-17,95.8,86.1,76.3,75.9,73.1,70.5,85,67,47,29.92,28.92,5,1,16,0.00
2012-7-18,98.1,85.4,75.6,78.7,74.7,70.5,87,72,46,30.74,28.93,5,1,18,0.06
2012-7-19,98.2,81.1,73.2,80.7,73.3,69.0,93,79,51,29.95,29.77,6,2,18,0.82
2012-7-20,87.5,77.9,73.4,76.3,72.0,66.7,93,83,63,29.99,29.83,5,1,14,0.07
2012-7-21,87.9,76.9,65.6,69.3,65.5,63.3,93,69,46,30.06,29.98,2,0,10,0.00
2012-7-22,95.1,80.3,66.3,69.4,65.1,59.9,93,64,32,30.13,30.03,3,0,8,0.00
2012-7-23,96.5,85.7,75.7,76.5,72.8,63.8,87,67,46,30.09,29.96,5,1,19,0.00
2012-7-24,97.7,86.9,79.2,78.6,73.6,69.9,83,65,47,29.98,29.83,5,2,13,0.00
2012-7-25,100.5,88.1,77.4,78.6,74.9,71.0,88,67,42,29.89,29.75,6,2,21,0.00
2012-7-26,98.6,88.3,79.5,78.4,74.7,72.6,87,65,49,29.81,29.66,5,3,29,0.01
2012-7-27,96.2,81.8,71.3,76.7,71.1,66.7,92,73,39,29.92,29.77,5,2,21,0.34
2012-7-28,87.8,77.6,67.8,69.8,66.6,63.3,94,72,45,30.03,29.92,3,0,10,0.00
2012-7-29,88.0,77.5,66.3,68.0,64.0,57.9,93,66,38,30.08,29.95,2,0,8,0.00
2012-7-30,91.3,79.3,66.4,69.5,65.6,62.8,89,65,43,29.99,29.87,3,0,11,0.00
2012-7-31,95.1,83.1,71.0,72.1,68.7,64.4,88,64,38,29.91,29.80,2,0,10,0.00
2012-8-1,94.8,83.2,74.0,72.6,66.6,55.3,87,61,28,29.88,29.79,2,0,10,0.00
2012-8-2,97.8,81.7,64.7,70.1,61.8,54.8,86,55,26,29.88,29.76,3,0,10,0.00
2012-8-3,85.7,78.3,72.7,76.8,72.4,64.8,93,83,56,29.89,29.80,3,0,14,0.32
2012-8-4,90.9,76.0,0.0,79.3,75.2,72.5,95,79,68,29.98,29.87,6,2,27,0.05
2012-8-5,87.8,80.6,76.5,76.8,73.6,72.3,88,79,65,30.07,29.95,6,2,22,0.00
2012-8-6,90.9,80.5,71.7,72.7,68.0,63.1,95,69,41,30.10,29.96,2,0,11,0.00
2012-8-7,94.8,81.1,68.8,74.6,67.2,61.4,92,66,34,29.98,29.88,3,0,11,0.00
2012-8-8,97.4,83.1,68.6,69.7,66.0,60.0,84,60,31,29.97,29.85,5,1,13,0.00
2012-8-9,91.3,80.6,73.4,74.0,68.3,61.1,87,67,46,29.89,29.72,6,1,21,0.00
2012-8-10,81.5,75.5,67.8,69.8,63.7,57.7,88,68,47,29.88,29.67,5,1,11,0.00
2012-8-11,83.9,71.5,58.1,58.7,53.5,47.6,87,56,30,29.97,29.88,3,1,13,0.00
2012-8-12,88.5,72.7,56.5,60.0,54.0,47.3,90,57,26,30.04,29.95,5,1,13,0.00
2012-8-13,78.3,70.7,62.4,69.3,63.1,57.8,91,77,61,30.00,29.87,5,0,11,0.14
2012-8-14,82.3,74.0,69.8,68.4,66.3,63.4,92,78,58,29.91,29.84,2,0,11,0.00
2012-8-15,89.4,76.8,66.0,65.7,61.9,56.0,92,64,34,29.98,29.90,2,0,8,0.00
2012-8-16,91.7,76.9,63.3,70.0,65.0,60.0,92,69,47,30.00,29.80,6,2,18,0.64
2012-8-17,83.8,73.4,67.8,68.4,63.1,54.2,93,73,39,29.94,29.83,5,0,10,0.02
2012-8-18,82.8,70.7,58.8,60.6,56.0,49.7,90,63,33,29.98,29.86,3,0,8,0.00
2012-8-19,86.0,72.1,58.8,61.1,53.3,43.3,85,56,24,29.90,29.83,3,0,11,0.00
2012-8-20,86.7,70.7,58.0,59.3,53.5,47.6,88,59,28,29.96,29.89,3,0,10,0.00
2012-8-21,83.3,70.2,59.1,66.0,57.3,53.8,87,66,38,30.06,29.96,3,0,11,0.03
2012-8-22,89.7,72.5,57.2,61.8,56.2,51.1,93,62,29,30.12,30.02,3,0,10,0.00
2012-8-23,92.8,75.1,58.5,61.6,57.9,54.1,90,60,29,30.11,30.00,5,1,14,0.00
2012-8-24,97.0,78.0,61.1,65.8,60.5,52.6,90,60,25,30.07,29.96,3,1,16,0.00
2012-8-25,95.7,77.9,66.3,72.2,64.0,59.1,88,66,30,30.08,30.00,3,0,16,0.00
2012-8-26,78.5,77.3,76.5,68.4,68.2,68.0,76,74,71,30.02,30.01,0,0,0,0.00
2012-8-27,91.5,80.1,72.6,76.1,70.6,66.5,93,74,52,30.04,29.92,6,1,19,0.19
2012-8-28,80.4,79.0,77.3,61.9,61.6,61.1,59,55,53,29.97,29.96,2,0,5,0.00
2012-8-29,92.6,78.4,64.4,65.7,59.6,52.9,87,56,28,30.03,29.92,2,0,10,0.00
2012-8-30,96.0,79.2,62.0,72.2,63.1,57.6,87,61,34,30.06,29.96,6,1,14,0.00
2012-8-31,92.0,81.6,73.0,75.3,72.7,70.3,92,76,56,30.15,30.01,6,1,16,0.00
2012-9-1,87.6,79.3,73.4,78.8,73.4,70.6,93,83,64,30.06,29.91,6,1,19,0.92
2012-9-2,80.3,75.5,73.0,74.6,73.0,70.5,94,92,81,29.94,29.75,5,1,18,0.59
2012-9-3,84.8,77.3,74.9,76.6,74.1,73.1,95,90,72,29.85,29.76,5,0,11,0.11
2012-9-4,90.8,80.0,73.7,77.6,73.9,71.2,94,83,58,29.88,29.80,5,0,10,0.00
2012-9-5,91.8,77.5,71.0,76.2,72.0,68.3,95,84,56,29.86,29.76,5,1,19,1.21
2012-9-6,88.3,77.1,69.2,74.7,70.9,67.4,95,83,60,29.96,29.85,3,0,11,0.00
2012-9-7,92.9,80.5,70.3,74.0,70.7,67.0,94,74,45,29.91,29.64,6,2,18,0.02
2012-9-8,76.6,69.4,61.3,67.9,59.2,50.4,94,72,42,29.93,29.65,5,0,14,0.98
2012-9-9,78.8,66.0,56.3,59.4,55.0,52.0,90,70,40,30.06,29.91,6,1,21,0.00
2012-9-10,79.7,65.3,57.0,58.3,55.4,50.0,93,73,36,30.19,30.06,3,0,10,0.00
2012-9-11,84.0,68.0,54.2,61.1,54.9,51.3,93,67,34,30.24,30.14,6,1,13,0.00
2012-9-12,86.2,78.5,67.3,65.3,61.8,58.7,81,58,44,30.24,30.17,5,1,14,0.00
2012-9-13,85.5,73.4,64.0,65.7,62.6,59.8,92,71,45,30.27,30.17,5,0,11,0.00
2012-9-14,83.0,69.3,61.6,65.2,61.3,56.7,93,77,51,30.26,30.18,3,1,11,0.00
2012-9-15,77.4,66.8,55.3,56.8,51.7,45.1,88,61,34,30.30,30.13,3,0,11,0.00
2012-9-16,79.5,68.7,58.9,64.7,57.3,52.8,87,68,50,30.13,30.00,5,1,14,0.01
2012-9-17,70.7,69.4,68.6,67.8,66.8,66.2,93,92,90,29.81,29.73,0,0,2,0.05
2012-9-18,71.3,65.6,54.1,66.7,56.3,40.0,94,75,39,30.03,29.64,3,1,13,0.00
2012-9-19,72.5,57.1,44.2,47.6,42.8,36.4,93,63,29,30.18,30.04,3,0,10,0.00
2012-9-20,82.0,61.7,47.5,56.5,49.2,43.9,90,67,36,30.08,29.93,6,2,21,0.00
2012-9-21,79.3,68.5,57.3,64.7,59.0,53.4,90,72,59,29.99,29.75,8,2,26,0.00
2012-9-22,76.3,67.5,51.5,58.4,49.8,33.6,87,56,28,30.15,29.75,6,2,22,0.00
2012-9-23,67.7,53.3,41.2,43.8,40.1,37.1,90,64,35,30.27,30.15,3,0,11,0.00
2012-9-24,71.3,54.2,40.7,45.7,41.1,36.0,92,66,30,30.29,30.05,5,1,13,0.00
2012-9-25,74.8,62.9,53.5,64.5,55.4,45.6,94,77,57,30.08,29.94,8,1,21,0.46
2012-9-26,81.0,70.2,63.7,71.3,64.6,60.2,94,83,66,30.12,30.00,6,1,21,1.34
2012-9-27,77.8,69.7,64.5,68.9,65.7,62.9,95,87,69,30.12,30.05,3,0,11,0.09
2012-9-28,78.0,69.7,62.6,69.4,65.2,55.8,96,86,66,30.08,29.99,2,0,8,0.12
2012-9-29,74.4,62.7,52.6,61.8,56.4,50.6,94,81,53,30.05,29.94,2,0,6,0.00
2012-9-30,75.2,63.4,53.4,59.4,55.2,51.6,94,77,47,29.96,29.80,3,1,11,0.00
2012-10-1,65.2,60.8,58.0,59.0,54.5,47.7,94,81,60,29.84,29.59,3,1,11,0.49
2012-10-2,67.7,63.1,60.8,61.8,59.9,56.9,95,89,79,29.91,29.59,5,1,14,0.00
2012-10-3,76.3,64.0,56.3,57.9,54.9,52.1,90,74,45,30.12,29.90,6,2,19,0.00
2012-10-4,79.7,65.8,55.6,62.3,57.3,53.0,92,76,48,30.22,30.12,6,1,21,0.00
2012-10-5,77.1,65.5,47.6,64.6,58.8,44.2,92,80,61,30.15,29.93,5,1,13,0.05
2012-10-6,59.4,49.7,40.9,44.1,39.2,32.6,93,70,40,30.20,30.05,2,0,11,0.15
2012-10-7,57.5,49.5,41.4,41.2,38.7,35.1,89,67,46,30.20,30.12,3,0,11,0.00
2012-10-8,59.2,47.4,40.8,41.6,38.7,30.7,92,74,35,30.26,30.13,3,0,10,0.00
2012-10-9,66.2,50.1,37.7,46.8,41.7,35.9,94,76,43,30.18,29.99,5,1,16,0.00
2012-10-10,60.7,52.7,40.5,47.7,41.3,32.4,87,67,41,30.26,29.96,3,1,18,0.00
2012-10-11,65.0,47.9,34.2,43.4,37.1,32.1,93,70,35,30.32,30.18,5,1,16,0.00
2012-10-12,68.0,55.9,46.4,49.8,46.4,41.8,93,72,47,30.33,30.20,2,0,10,0.02
2012-10-13,75.6,61.7,46.5,66.1,54.7,42.9,90,78,63,30.30,30.01,6,2,21,0.00
2012-10-14,76.7,69.4,63.5,64.7,60.6,56.9,89,74,55,30.02,29.72,11,6,42,0.07
2012-10-15,66.5,57.3,48.4,59.5,45.7,40.4,85,67,42,29.98,29.84,3,1,18,0.00
2012-10-16,71.3,55.3,40.8,50.9,45.2,38.9,93,72,41,30.01,29.79,6,1,16,0.00
2012-10-17,76.7,66.2,54.5,55.6,51.4,47.5,86,61,41,29.81,29.48,10,4,34,0.00
2012-10-18,69.2,58.2,48.7,55.8,45.7,31.2,91,66,33,29.69,29.47,10,3,32,0.39
2012-10-19,58.8,52.7,48.7,46.7,41.7,35.9,86,67,49,29.77,29.59,6,2,18,0.04
2012-10-20,56.3,51.2,46.2,48.3,46.0,43.1,91,83,68,30.00,29.77,3,0,11,0.00
2012-10-21,73.8,55.6,40.8,53.5,47.2,39.1,95,76,45,30.12,30.00,5,1,11,0.00
2012-10-22,80.2,63.6,54.8,58.1,54.1,50.1,85,73,46,30.12,30.02,6,1,16,0.00
2012-10-23,81.9,70.4,58.5,56.4,53.1,49.8,79,56,34,30.08,29.97,6,2,19,0.00
2012-10-24,82.3,69.3,58.6,60.7,55.2,52.1,81,62,43,30.11,29.99,6,1,14,0.00
2012-10-25,81.9,66.3,52.5,60.7,54.9,49.3,89,69,43,30.04,29.92,10,2,24,0.00
2012-10-26,71.1,53.7,45.7,58.0,48.2,43.2,92,82,62,30.16,29.94,3,1,11,0.59
2012-10-27,55.8,49.4,43.7,44.2,40.9,37.2,91,74,55,30.15,30.07,3,2,14,0.01
2012-10-28,52.5,48.1,42.8,37.2,35.0,31.8,74,61,49,30.09,30.05,6,2,21,0.00
2012-10-29,57.1,47.4,39.1,34.0,27.7,15.3,71,50,20,30.10,29.86,8,3,21,0.00
2012-10-30,47.0,44.2,42.8,37.2,33.8,32.1,77,67,59,29.86,29.68,6,3,27,0.00
2012-10-31,49.3,47.5,46.2,34.9,34.4,33.8,64,60,55,29.90,29.83,2,1,11,0.00
2012-11-1,59.1,46.4,33.6,34.0,27.9,19.3,78,52,23,29.97,29.88,5,1,14,0.00
2012-11-2,57.6,50.1,40.4,37.6,34.6,31.3,79,56,40,30.09,29.84,3,1,11,0.00
2012-11-3,50.8,42.5,35.8,41.8,37.4,32.9,89,82,67,30.19,30.03,5,1,11,0.13
2012-11-4,54.1,43.4,34.8,39.1,35.3,30.8,90,74,46,30.19,30.11,2,0,11,0.00
2012-11-5,46.6,34.9,29.7,35.3,30.5,27.3,92,84,62,30.19,30.07,2,0,11,0.00
2012-11-6,56.5,45.4,33.5,41.1,34.4,29.8,90,67,43,30.07,29.91,3,0,8,0.04
2012-11-7,50.3,45.1,38.7,42.5,40.6,35.3,92,85,71,30.14,29.89,2,0,8,0.05
2012-11-8,55.7,42.3,32.8,40.8,35.6,30.5,94,79,50,30.28,30.14,3,0,13,0.01
2012-11-9,66.0,48.2,32.0,44.8,38.1,29.9,94,71,40,30.27,30.12,6,1,19,0.00
2012-11-10,75.2,61.6,48.4,52.1,44.6,40.6,76,55,34,30.21,30.10,11,4,29,0.00
2012-11-11,72.3,64.5,57.9,51.0,44.2,40.3,59,48,37,30.22,30.03,14,7,43,0.00
2012-11-12,65.9,55.9,32.3,56.9,50.0,28.0,91,81,59,30.44,29.98,13,5,32,0.51
2012-11-13,48.4,36.6,28.5,30.3,26.7,22.5,90,70,39,30.54,30.43,3,1,14,0.00
2012-11-14,48.2,37.8,29.5,31.5,28.4,25.6,87,70,50,30.52,30.37,5,1,16,0.00
2012-11-15,49.5,37.0,26.5,33.1,28.9,23.2,91,74,49,30.40,30.32,2,0,5,0.00
2012-11-16,52.6,38.8,28.9,35.9,31.1,26.6,92,76,47,30.47,30.38,3,0,7,0.00
2012-11-17,59.0,41.5,29.2,37.5,31.9,26.4,92,72,39,30.53,30.42,3,0,7,0.01
2012-11-18,61.1,43.6,31.2,35.7,32.0,27.8,89,67,33,30.44,30.34,2,0,5,0.00
2012-11-19,62.2,46.3,33.7,39.7,34.9,30.3,90,67,36,30.37,30.18,1,0,4,0.00
2012-11-20,64.8,53.2,39.2,44.7,40.5,34.6,84,63,44,30.18,30.04,2,0,7,0.00
2012-11-21,63.4,50.4,42.3,44.3,41.3,37.8,89,72,45,30.24,30.11,2,0,5,0.00
2012-11-22,67.6,50.9,35.5,46.4,40.5,32.9,93,70,44,30.22,30.04,6,1,15,0.00
2012-11-23,58.4,48.7,32.6,49.2,34.0,20.2,82,57,46,30.24,29.99,5,2,19,0.00
2012-11-24,37.2,30.4,24.7,22.5,20.0,17.0,78,65,53,30.30,30.16,3,1,8,0.00
2012-11-25,56.2,41.1,27.5,29.9,25.1,21.7,80,56,31,30.17,29.92,6,2,15,0.00
2012-11-26,49.5,41.9,31.1,39.5,32.0,25.8,86,69,52,30.23,30.06,4,0,9,0.06
2012-11-27,43.7,37.2,28.5,36.4,30.2,24.5,87,76,57,30.37,30.22,5,2,11,0.02
2012-11-28,46.2,33.8,25.4,30.0,25.3,22.6,90,73,44,30.48,30.34,3,0,9,0.00
2012-11-29,53.6,37.3,24.6,32.7,27.6,21.3,90,70,42,30.43,30.25,4,0,10,0.00
2012-11-30,59.9,49.9,42.9,42.6,36.6,30.2,83,61,51,30.27,30.15,6,2,15,0.00
2012-12-1,66.7,57.4,43.5,48.7,44.3,38.4,82,62,50,30.26,30.13,6,2,14,0.00
2012-12-2,65.0,62.4,59.4,58.5,53.8,47.4,84,74,62,30.14,30.06,9,4,19,0.10
2012-12-3,73.8,66.9,62.9,58.7,55.9,51.8,83,68,56,30.14,30.05,7,4,16,0.00
2012-12-4,65.5,60.4,48.5,60.0,53.0,42.3,91,77,62,30.23,30.00,7,4,17,0.39
2012-12-5,54.8,45.2,37.1,43.3,38.2,32.4,93,78,54,30.36,30.22,3,1,7,0.00
2012-12-6,50.5,42.4,30.5,46.3,37.2,27.8,92,82,65,30.25,29.99,3,0,6,0.12
2012-12-7,57.5,53.5,48.5,55.8,51.8,46.3,95,94,92,29.99,29.85,2,0,6,1.20
2012-12-8,58.6,55.4,49.9,55.7,52.3,46.8,95,90,78,29.99,29.83,4,1,9,0.59
2012-12-9,65.4,57.0,49.7,60.4,54.2,47.3,95,90,81,29.99,29.70,5,2,15,0.98
2012-12-10,57.9,42.1,33.1,55.9,37.8,27.3,93,84,78,30.01,29.70,4,1,11,0.05
2012-12-11,37.9,32.3,27.5,28.4,25.5,23.4,89,77,58,30.29,30.00,4,0,8,0.00
2012-12-12,44.9,32.5,23.5,29.8,25.1,20.7,92,76,46,30.42,30.29,2,0,6,0.01
2012-12-13,49.6,34.5,24.6,31.8,26.5,22.3,93,75,42,30.44,30.29,2,0,6,0.00
2012-12-14,56.6,40.1,26.7,33.6,28.2,23.7,90,66,31,30.34,30.14,4,1,9,0.00
2012-12-15,59.0,49.5,40.9,52.1,41.9,32.3,90,75,67,30.16,29.80,7,2,19,0.25
2012-12-16,63.6,59.1,53.7,56.1,53.1,48.6,91,81,63,29.81,29.66,5,2,16,0.16
2012-12-17,61.7,54.1,46.9,54.2,50.6,43.8,93,88,75,29.72,29.53,4,1,10,0.30
2012-12-18,49.4,44.2,39.8,43.8,37.0,34.9,89,76,61,29.93,29.66,7,2,17,0.00
2012-12-19,51.7,46.0,37.7,41.3,37.6,33.0,85,73,60,30.08,29.84,3,0,8,0.00
2012-12-20,59.1,47.4,32.5,50.0,40.1,26.1,91,76,57,29.89,29.33,10,4,26,0.79
2012-12-21,36.1,31.6,28.0,27.0,23.0,19.4,80,71,61,30.22,29.72,5,3,22,0.01
2012-12-22,38.9,28.8,20.6,24.0,20.1,15.9,85,70,49,30.34,30.10,3,0,9,0.00
2012-12-23,54.5,43.1,26.5,40.2,30.5,21.0,83,62,45,30.10,29.91,5,2,11,0.00
2012-12-24,50.6,44.4,34.2,47.4,41.1,28.4,95,88,79,30.05,29.77,3,1,10,0.09
2012-12-25,38.0,36.0,34.1,31.0,28.9,27.4,85,75,69,30.16,29.93,6,2,15,0.03
2012-12-26,35.0,33.6,31.8,32.6,30.6,26.6,93,89,81,30.03,29.51,8,4,20,0.71
2012-12-27,35.3,32.7,30.2,29.0,27.3,25.4,84,80,73,30.21,30.03,2,0,6,0.03
2012-12-28,37.9,34.5,31.6,32.9,29.2,26.1,91,81,75,30.16,29.79,1,0,7,0.06
2012-12-29,34.7,31.5,27.1,31.6,28.0,20.6,93,87,75,30.32,29.75,3,1,12,0.08
2012-12-30,34.3,27.6,19.4,25.4,21.6,15.7,88,78,63,30.53,30.32,3,1,9,0.10
2012-12-31,38.7,34.2,26.5,33.2,28.1,23.2,90,78,70,30.37,30.09,5,1,10,0.18
2013-1-1,36.8,34.8,31.6,33.6,31.2,24.5,92,87,76,30.18,30.06,3,1,8,0.07